Starlink 31776

operational
NORAD ID: 59603 Int'l Des: 2024-080 Owner: SPXS Country: US Constellation: starlink
LEOCIRCULAR

About Starlink 31776

Description loading...

Live Position

Loading 3D Globe...

Upcoming Passes

Altitude History

Altitude vs Time

uPlot chart will show altitude changes over time

Two-Line Element Set

1 59603U 24080C 25350.74055254 .00002535 00000-0 10161-3 0 9991
2 59603 43.0001 150.0801 0001286 275.0228 85.0477 15.27580642 91800
Epoch: Dec 16, 2025 • Age: 18 hours

Current Status

Altitude 493.7 km
Velocity 7.62 km/s
Sub-Earth Point -38.40°S, 115.55°E
Launch Date Apr 28, 2024
Age 1.6 years
Type internet

Technical Details

Classification Payload
Mass 730.00 kg
Dry Mass 700.00 kg
Total Mass 730.00 kg
Length 0.30 m
Diameter 4.10 m
Span 29.00 m
Shape Box + pan
Manufacturer SPXS
Bus Type Starlink V2M
Phase Status In Orbit
Owner/State SPXS/US

Large Constellations

Loading constellations...